Regional Weather Roundup
Issued by NWS

Home | Current Version | Previous Version | Text Only | Print | Product List | Glossary On
Versions: 1 2 3 4 5 6 7 8 9 10 11 12 13 14 15 16 17 18 19 20 21 22 23 24 25 26 27
000
ASUS44 KBMX 200610
RWRAL

ALABAMA REGIONAL WEATHER ROUNDUP
NATIONAL WEATHER SERVICE BIRMINGHAM AL
1200 AM CST FRI JAN 20 2017

NOTE: "FAIR" INDICATES FEW OR NO CLOUDS BELOW 12,000 FEET
WITH NO SIGNIFICANT WEATHER AND/OR OBSTRUCTIONS TO VISIBILITY.

THE REMARK "TC" DENOTES TEMPERATURE IN DEGREES CELSIUS.

ALZ001>011-014-016>018-020-200700-
NORTH ALABAMA

CITY           SKY/WX    TMP DP  RH WIND       PRES   REMARKS
MUSCLE SHOALS  CLEAR     56  54  93 S6        29.74F
6HR MIN TEMP:  55; 6HR MAX TEMP:  61; 6HR PCP:  0.43;

HUNTSVILLE     CLOUDY    61  60  97 S8        29.74R
6HR MIN TEMP:  60; 6HR MAX TEMP:  63; 6HR PCP:  0.58;

DECATUR        CLOUDY    59  59 100 S8        29.74F
6HR MIN TEMP:  58; 6HR MAX TEMP:  62; 6HR PCP:  0.20;

HALEYVILLE     CLOUDY    55  54  96 S5        29.77F
6HR MIN TEMP:  54; 6HR MAX TEMP:  62; 6HR PCP:  0.25;

GADSDEN        CLOUDY    63  61  94 SW9       29.78F
6HR MIN TEMP:  59; 6HR MAX TEMP:  63; 6HR PCP:  0.90;

$$

ALZ012-013-022-023-030>036-040>044-200700-
WEST CENTRAL ALABAMA

CITY           SKY/WX    TMP DP  RH WIND       PRES   REMARKS
TUSCALOOSA     CLEAR     62  61  96 SW9       29.78F
6HR MIN TEMP:  62; 6HR MAX TEMP:  64; 6HR PCP:  0.07;

$$

ALZ015-024>027-033>036-040>044-200700-
CENTRAL ALABAMA

CITY           SKY/WX    TMP DP  RH WIND       PRES   REMARKS
BIRMINGHAM     CLOUDY    63  60  90 S17       29.79F
6HR MIN TEMP:  62; 6HR MAX TEMP:  63; 6HR PCP:  0.17;

MONTGOMERY     CLOUDY    65  59  81 SW5       29.83R
6HR MIN TEMP:  65; 6HR MAX TEMP:  74; 6HR PCP:  0.41;

SHELBY CO ARPT CLOUDY    63  63 100 SW6       29.79F
6HR MIN TEMP:  63; 6HR MAX TEMP:  63; 6HR PCP:  0.29;

MAXWELL AFB    CLOUDY    64  62  95 S5        29.81S
6HR MIN TEMP:  64; 6HR MAX TEMP:  72; 6HR PCP:  0.31;

GREENVILLE     FAIR      63  60  90 S6        29.82S
6HR MIN TEMP:  63; 6HR MAX TEMP:  71; 6HR PCP:  0.26;

$$

ALZ019-021-028-029-037-038-045>048-200700-
EAST CENTRAL ALABAMA

CITY           SKY/WX    TMP DP  RH WIND       PRES   REMARKS
ANNISTON       CLOUDY    62  61  96 CALM      29.79F
6HR MIN TEMP:  62; 6HR MAX TEMP:  70; 6HR PCP:  0.55;

ALEXANDER CITY CLOUDY    69  67  93 SW8       29.82S
6HR MIN TEMP:  65; 6HR MAX TEMP:  71; 6HR PCP:  1.26;

AUBURN         CLOUDY    64  63  96 S10       29.84R
6HR MIN TEMP:  64; 6HR MAX TEMP:  69; 6HR PCP:  0.26;

$$

ALZ051>064-200700-
SOUTHWEST ALABAMA

CITY           SKY/WX    TMP DP  RH WIND       PRES   REMARKS
MOBILE         CLOUDY    64  63  96 S8        29.84F
6HR MIN TEMP:  64; 6HR MAX TEMP:  65; 6HR PCP:  0.11;

BROOKLEY FIELD MOCLDY    66  65  96 S5        29.85F
6HR MIN TEMP:  65; 6HR MAX TEMP:  71; 6HR PCP:  0.49;

EVERGREEN      PTCLDY    62  60  93 CALM      29.83F FOG
6HR MIN TEMP:  62; 6HR MAX TEMP:  71; 6HR PCP:  1.05;

$$

ALZ049-050-065>069-200700-
SOUTHEAST ALABAMA

CITY           SKY/WX    TMP DP  RH WIND       PRES   REMARKS
DOTHAN         LGT RAIN  66  66 100 S10       29.89F
6HR MIN TEMP:  66; 6HR MAX TEMP:  70; 6HR PCP:  0.34;

OZARK          MOCLDY    66  64  94 SE12      29.84F
                                      6HR PCP:  0.95;

TROY           CLOUDY    64  64 100 S6        29.85S
6HR MIN TEMP:  64; 6HR MAX TEMP:  70; 6HR PCP:  0.34;

EUFAULA        LGT RAIN  66  63  90 S8G21     29.83F
6HR MIN TEMP:  66; 6HR MAX TEMP:  70; 6HR PCP:  0.40;

$$




USA.gov is the U.S. government's official web portal to all federal, state and local government web resources and services.